Weather History for New Philadelphia, OH

Change the Weather History Date:

Wednesday, October 6, 2010

  Actual Average Record
Temperature  
Mean Temperature 54 °F 56 °F  
Max Temperature 64 °F 68 °F 83 °F (2013)
Min Temperature 45 °F 44 °F 27 °F (1964)
Degree Days  
Heating Degree Days 11 10  
Month to date heating degree days 53  
Since 1 July heating degree days 159  
Cooling Degree Days 0 1  
Month to date cooling degree days 6  
Year to date cooling degree days 694  
Growing Degree Days 4 (Base 50)    
Moisture  
Dew Point 46 °F    
Average Humidity 88    
Maximum Humidity 94    
Minimum Humidity 50    
Precipitation  
Precipitation 0.19 in 0.08 in 0.45 in (1981)
Month to date precipitation 0.54  
Year to date precipitation 30.75  
Sea Level Pressure  
Sea Level Pressure 30.04 in    
Wind  
Wind Speed 1 mph (NW)    
Max Wind Speed 5 mph    
Max Gust Speed -    
Visibility 7 miles    
Events Rain    
T = Trace of Precipitation, MM = Missing Value Source: NWS Daily Summary

Daily Weather History Graph

Daily Weather History Graph

Search for Another Location

Airport:

Trip Planner

Search our weather history database for the weather conditions in past years. The results will help you decide how hot, cold, wet, or windy it might be!

Date:

Astronomy

Oct. 06, 2010 Rise Set
Actual Time 7:27 AM EDT 6:59 PM EDT
Civil Twilight 6:59 AM EDT 7:26 PM EDT
Nautical Twilight 6:28 AM EDT 7:58 PM EDT
Astronomical Twilight 5:56 AM EDT 8:30 PM EDT
Moon 6:01 AM EDT (10/6) 6:02 PM EDT (10/6)
Length of Visible Light 12h 27m
Length of Day
11h 32m
Waning Crescent, 2% of the Moon is Illuminated
Oct 6
Waning Crescent
Oct 7
New
Oct 14
First Quarter
Oct 22
Full
Oct 30
Last Quarter

Hourly Weather History & Observations

Time (EDT) Temp. Windchill Dew Point Humidity Pressure Visibility Wind Dir Wind Speed Gust Speed Precip Events Conditions
12:05 AM 46.4 °F - 42.8 °F 87% 30.15 in 9.0 mi Calm Calm - N/A   Overcast
12:33 AM 46.4 °F 45.2 °F 42.8 °F 87% 30.15 in 9.0 mi SE 3.5 mph - 0.00 in Rain Light Rain
12:39 AM 46.4 °F - 42.8 °F 87% 30.15 in 9.0 mi Calm Calm - 0.00 in Rain Light Rain
12:53 AM 46.0 °F - 44.1 °F 93% 30.15 in 7.0 mi Calm Calm - 0.00 in   Overcast
1:53 AM 46.9 °F - 44.1 °F 90% 30.12 in 6.0 mi Calm Calm - 0.00 in Rain Light Rain
2:53 AM 46.9 °F - 44.1 °F 90% 30.11 in 8.0 mi WNW 3.5 mph - 0.01 in Rain Light Rain
3:48 AM 46.4 °F - 44.6 °F 93% 30.08 in 5.0 mi Calm Calm - 0.08 in Rain Light Rain
3:53 AM 46.9 °F - 44.1 °F 90% 30.09 in 5.0 mi NNW 3.5 mph - 0.08 in Rain Light Rain
4:13 AM 46.4 °F - 44.6 °F 93% 30.07 in 9.0 mi Calm Calm - 0.02 in Rain Light Rain
4:29 AM 46.4 °F - 44.6 °F 93% 30.07 in 9.0 mi Calm Calm - 0.02 in Rain Light Rain
4:41 AM 46.4 °F 45.2 °F 44.6 °F 93% 30.07 in 5.0 mi NW 3.5 mph - 0.03 in Rain Light Rain
4:53 AM 46.9 °F - 45.0 °F 93% 30.08 in 5.0 mi Calm Calm - 0.05 in Rain Rain
5:24 AM 48.2 °F - 44.6 °F 87% 30.06 in 7.0 mi Calm Calm - 0.01 in Rain Light Rain
5:48 AM 48.2 °F - 44.6 °F 87% 30.06 in 8.0 mi NW 3.5 mph - 0.01 in Rain Light Rain
5:53 AM 48.0 °F - 45.0 °F 89% 30.07 in 9.0 mi WNW 4.6 mph - 0.01 in Rain Light Rain
6:03 AM 48.2 °F - 44.6 °F 87% 30.06 in 9.0 mi Calm Calm - 0.00 in Rain Light Rain
6:53 AM 46.9 °F - 45.0 °F 93% 30.06 in 6.0 mi Calm Calm - 0.01 in Rain Light Rain
7:38 AM 46.4 °F 45.2 °F 44.6 °F 93% 30.05 in 2.5 mi NNW 3.5 mph - 0.01 in Rain Light Rain
7:53 AM 46.9 °F - 45.0 °F 93% 30.06 in 2.5 mi Calm Calm - 0.01 in Rain Light Rain
8:00 AM 48.2 °F - 44.6 °F 87% 30.05 in 3.0 mi Calm Calm - 0.00 in   Overcast
8:53 AM 48.0 °F - 46.0 °F 93% 30.06 in 3.0 mi Calm Calm - 0.00 in Rain Light Rain
8:56 AM 48.2 °F - 46.4 °F 93% 30.05 in 2.5 mi Calm Calm - 0.00 in Rain Light Rain
9:04 AM 48.2 °F - 46.4 °F 93% 30.05 in 1.8 mi Calm Calm - 0.01 in Rain Light Rain
9:29 AM 48.2 °F - 46.4 °F 93% 30.05 in 3.0 mi NNW 3.5 mph - 0.01 in Rain Light Rain
9:53 AM 50.0 °F - 46.9 °F 89% 30.06 in 4.0 mi NW 4.6 mph - 0.01 in   Overcast
10:12 AM 50.0 °F - 46.4 °F 87% 30.05 in 2.5 mi West 3.5 mph - N/A   Overcast
10:19 AM 50.0 °F - 48.2 °F 94% 30.05 in 4.0 mi Calm Calm - 0.01 in   Overcast
10:53 AM 51.1 °F - 48.0 °F 89% 30.06 in 10.0 mi Calm Calm - 0.01 in   Overcast
11:23 AM 51.8 °F - 48.2 °F 88% 30.04 in 10.0 mi Variable 3.5 mph - N/A   Overcast
11:42 AM 51.8 °F - 48.2 °F 88% 30.04 in 2.5 mi WNW 3.5 mph - 0.00 in Rain Light Rain
11:53 AM 51.1 °F - 48.0 °F 89% 30.04 in 2.5 mi West 4.6 mph - 0.00 in Rain Light Rain
12:01 PM 51.8 °F - 48.2 °F 88% 30.03 in 5.0 mi West 3.5 mph - 0.00 in   Overcast
12:18 PM 51.8 °F - 48.2 °F 88% 30.03 in 8.0 mi Calm Calm - 0.00 in   Overcast
12:44 PM 51.8 °F - 48.2 °F 88% 30.03 in 8.0 mi North 3.5 mph - 0.00 in   Overcast
12:53 PM 52.0 °F - 48.0 °F 86% 30.03 in 7.0 mi Calm Calm - 0.00 in   Overcast
1:00 PM 51.8 °F - 48.2 °F 88% 30.02 in 6.0 mi Calm Calm - N/A   Overcast
1:06 PM 51.8 °F - 48.2 °F 88% 30.01 in 6.0 mi Calm Calm - N/A   Overcast
1:53 PM 54.0 °F - 50.0 °F 86% 29.99 in 10.0 mi Calm Calm - N/A   Overcast
2:53 PM 57.0 °F - 52.0 °F 83% 29.97 in 10.0 mi Calm Calm - N/A   Overcast
3:53 PM 59.0 °F - 50.0 °F 72% 29.95 in 10.0 mi NW 4.6 mph - 0.00 in   Overcast
4:53 PM 63.0 °F - 50.0 °F 63% 29.92 in 10.0 mi North 4.6 mph - N/A   Mostly Cloudy
5:53 PM 63.0 °F - 44.1 °F 50% 29.91 in 10.0 mi NW 4.6 mph - N/A   Scattered Clouds
6:53 PM 55.9 °F - 46.0 °F 69% 29.93 in 10.0 mi Calm Calm - N/A   Scattered Clouds
7:53 PM 50.0 °F - 46.9 °F 89% 29.94 in 10.0 mi Calm Calm - N/A   Clear
8:53 PM 50.0 °F - 46.0 °F 86% 29.93 in 10.0 mi Calm Calm - N/A   Mostly Cloudy
9:53 PM 48.9 °F - 46.0 °F 90% 29.92 in 10.0 mi Calm Calm - N/A   Scattered Clouds
10:53 PM 45.0 °F 43.5 °F 43.0 °F 93% 29.91 in 4.0 mi SE 3.5 mph - N/A   Clear
11:53 PM 46.0 °F - 44.1 °F 93% 29.91 in 8.0 mi Calm Calm - N/A   Mostly Cloudy